• In Belarus
  • List of Countries
  • For 7 days
  • Water Temperature
  • Satellite Maps
  • Weather Map
  • Weather Widgets
  • user-avatar
    Login

    Hourly Weather Bulle

    Today, 23 October, Monday

    Time Temperature Precipitation Wind Pressure Humidity
    00:00 +4°C° 0 mm 2 mps 694 mmHg 96%
    01:00 +4°C° 0.9 mm 2 mps 694 mmHg 96%
    02:00 +4°C° 0.9 mm 2 mps 694 mmHg 96%
    03:00 +4°C° 0.9 mm 2 mps 694 mmHg 96%
    04:00 +4°C° 0.9 mm 2 mps 694 mmHg 96%
    05:00 +4°C° 0.9 mm 2 mps 694 mmHg 96%
    06:00 +4°C° 0 mm 2 mps 694 mmHg 96%
    07:00 +5°C° 0.5 mm 2 mps 694 mmHg 95%
    08:00 +5°C° 0.5 mm 2 mps 694 mmHg 95%
    09:00 +6°C° 0.5 mm 2 mps 695 mmHg 94%
    10:00 +6°C° 0.4 mm 2 mps 695 mmHg 93%
    11:00 +7°C° 0.4 mm 2 mps 695 mmHg 91%
    12:00 +7°C° 0.4 mm 2 mps 695 mmHg 90%
    13:00 +7°C° 0.2 mm 2 mps 695 mmHg 90%
    14:00 +8°C° 0.2 mm 1 mps 695 mmHg 90%
    15:00 +9°C° 0.2 mm 1 mps 695 mmHg 90%
    16:00 +8°C° 0.1 mm 1 mps 696 mmHg 91%
    17:00 +7°C° 0.1 mm 1 mps 696 mmHg 93%
    18:00 +6°C° 0.1 mm 1 mps 696 mmHg 94%
    19:00 +6°C° 0 mm 1 mps 696 mmHg 93%
    20:00 +6°C° 0 mm 1 mps 697 mmHg 92%
    21:00 +5°C° 0 mm 1 mps 697 mmHg 91%
    22:00 +5°C° 0 mm 1 mps 697 mmHg 90%
    23:00 +5°C° 0 mm 1 mps 697 mmHg 89%

    Tomorrow, 24 October, Tuesday

    Time Temperature Precipitation Wind Pressure Humidity
    00:00 +5°C° 0 mm 1 mps 697 mmHg 88%
    01:00 +5°C° 0 mm 1 mps 697 mmHg 87%
    02:00 +5°C° 0 mm 1 mps 697 mmHg 87%
    03:00 +5°C° 0 mm 1 mps 697 mmHg 86%
    04:00 +5°C° 0 mm 1 mps 697 mmHg 86%
    05:00 +5°C° 0 mm 1 mps 697 mmHg 86%
    06:00 +5°C° 0 mm 1 mps 697 mmHg 86%
    07:00 +7°C° 0 mm 1 mps 697 mmHg 85%
    08:00 +9°C° 0 mm 1 mps 697 mmHg 83%
    09:00 +11°C° 0 mm 1 mps 698 mmHg 82%
    10:00 +12°C° 0 mm 1 mps 698 mmHg 80%
    11:00 +14°C° 0 mm 1 mps 698 mmHg 78%
    12:00 +15°C° 0 mm 1 mps 698 mmHg 76%
    13:00 +14°C° 0 mm 1 mps 697 mmHg 77%
    14:00 +14°C° 0 mm 1 mps 697 mmHg 79%
    15:00 +14°C° 0 mm 1 mps 697 mmHg 81%
    16:00 +12°C° 0 mm 1 mps 697 mmHg 83%
    17:00 +10°C° 0 mm 1 mps 697 mmHg 85%
    18:00 +9°C° 0 mm 1 mps 697 mmHg 87%
    19:00 +9°C° 0 mm 1 mps 697 mmHg 85%
    20:00 +8°C° 0 mm 1 mps 697 mmHg 83%
    21:00 +8°C° 0 mm 1 mps 697 mmHg 81%
    22:00 +8°C° 0 mm 1 mps 697 mmHg 80%
    23:00 +8°C° 0 mm 1 mps 697 mmHg 79%

    Day after tomorrow, 25 October, Wednesday

    Time Temperature Precipitation Wind Pressure Humidity
    00:00 +8°C° 0 mm 1 mps 697 mmHg 77%
    01:00 +8°C° 0 mm 1 mps 697 mmHg 77%
    02:00 +8°C° 0 mm 1 mps 697 mmHg 76%
    03:00 +8°C° 0 mm 1 mps 697 mmHg 75%
    04:00 +8°C° 0 mm 1 mps 697 mmHg 75%
    05:00 +8°C° 0 mm 1 mps 697 mmHg 75%
    06:00 +8°C° 0 mm 1 mps 697 mmHg 75%
    07:00 +10°C° 0 mm 1 mps 697 mmHg 74%
    08:00 +13°C° 0 mm 1 mps 698 mmHg 74%
    09:00 +14°C° 0 mm 0 mps 698 mmHg 73%
    10:00 +15°C° 0 mm 0 mps 699 mmHg 71%
    11:00 +16°C° 0 mm 0 mps 699 mmHg 68%
    12:00 +18°C° 0 mm 0 mps 699 mmHg 66%
    13:00 +17°C° 0 mm 0 mps 699 mmHg 69%
    14:00 +17°C° 0 mm 0 mps 698 mmHg 72%
    15:00 +16°C° 0 mm 0 mps 698 mmHg 75%
    16:00 +14°C° 0 mm 0 mps 698 mmHg 77%
    17:00 +13°C° 0 mm 1 mps 698 mmHg 79%
    18:00 +11°C° 0 mm 1 mps 698 mmHg 81%
    19:00 +11°C° 0 mm 1 mps 698 mmHg 79%
    20:00 +11°C° 0 mm 1 mps 698 mmHg 77%
    21:00 +11°C° 0 mm 1 mps 699 mmHg 75%
    22:00 +11°C° 0 mm 1 mps 699 mmHg 72%
    23:00 +11°C° 0 mm 1 mps 699 mmHg 70%

    26 October, Thursday

    Time Temperature Precipitation Wind Pressure Humidity
    00:00 +10°C° 0 mm 1 mps 699 mmHg 68%
    01:00 +10°C° 0 mm 1 mps 699 mmHg 67%
    02:00 +10°C° 0 mm 1 mps 698 mmHg 66%
    03:00 +10°C° 0 mm 1 mps 698 mmHg 65%
    04:00 +10°C° 0 mm 1 mps 698 mmHg 65%
    05:00 +10°C° 0 mm 1 mps 698 mmHg 65%
    06:00 +10°C° 0 mm 1 mps 699 mmHg 65%
    07:00 +12°C° 0 mm 1 mps 699 mmHg 65%
    08:00 +14°C° 0 mm 1 mps 699 mmHg 65%
    09:00 +18°C° 0 mm 1 mps 700 mmHg 66%
    10:00 +19°C° 0 mm 1 mps 700 mmHg 63%
    11:00 +20°C° 0 mm 1 mps 700 mmHg 60%
    12:00 +21°C° 0 mm 1 mps 700 mmHg 57%
    13:00 +21°C° 0 mm 1 mps 700 mmHg 60%
    14:00 +20°C° 0 mm 1 mps 699 mmHg 63%
    15:00 +17°C° 0 mm 0 mps 699 mmHg 66%
    16:00 +16°C° 0 mm 1 mps 699 mmHg 69%
    17:00 +14°C° 0 mm 1 mps 699 mmHg 71%
    18:00 +12°C° 0 mm 1 mps 698 mmHg 73%
    19:00 +12°C° 0 mm 1 mps 698 mmHg 71%
    20:00 +12°C° 0 mm 1 mps 699 mmHg 68%
    21:00 +11°C° 0 mm 1 mps 699 mmHg 66%
    22:00 +11°C° 0 mm 1 mps 698 mmHg 66%
    23:00 +11°C° 0 mm 1 mps 698 mmHg 65%

    27 October, Friday

    Time Temperature Precipitation Wind Pressure Humidity
    00:00 +11°C° 0 mm 1 mps 698 mmHg 65%
    01:00 +11°C° 0 mm 1 mps 698 mmHg 67%
    02:00 +10°C° 0 mm 1 mps 698 mmHg 68%
    03:00 +10°C° 0 mm 1 mps 698 mmHg 69%
    04:00 +10°C° 0 mm 1 mps 698 mmHg 71%
    05:00 +10°C° 0 mm 1 mps 697 mmHg 73%
    06:00 +10°C° 0 mm 1 mps 697 mmHg 74%
    07:00 +12°C° 0 mm 1 mps 698 mmHg 71%
    08:00 +14°C° 0 mm 1 mps 698 mmHg 69%
    09:00 +16°C° 0 mm 1 mps 698 mmHg 66%
    10:00 +16°C° 0 mm 2 mps 698 mmHg 64%
    11:00 +17°C° 0 mm 2 mps 698 mmHg 61%
    12:00 +18°C° 0 mm 2 mps 697 mmHg 59%
    13:00 +17°C° 0 mm 2 mps 697 mmHg 64%
    14:00 +16°C° 0 mm 2 mps 697 mmHg 68%
    15:00 +16°C° 0 mm 2 mps 696 mmHg 73%
    16:00 +14°C° 0.1 mm 1 mps 696 mmHg 79%
    17:00 +13°C° 0.1 mm 1 mps 696 mmHg 85%
    18:00 +11°C° 0.1 mm 1 mps 696 mmHg 92%
    19:00 +11°C° 0.3 mm 1 mps 696 mmHg 93%
    20:00 +11°C° 0.3 mm 1 mps 696 mmHg 95%
    21:00 +11°C° 0.3 mm 1 mps 696 mmHg 96%
    22:00 +11°C° 0.4 mm 1 mps 696 mmHg 96%
    23:00 +10°C° 0.4 mm 2 mps 696 mmHg 97%

    28 October, Saturday

    Time Temperature Precipitation Wind Pressure Humidity
    00:00 +9°C° 0.4 mm 2 mps 696 mmHg 97%
    01:00 +9°C° 0.1 mm 2 mps 696 mmHg 97%
    02:00 +8°C° 0.1 mm 2 mps 696 mmHg 97%
    03:00 +8°C° 0.1 mm 2 mps 696 mmHg 97%
    04:00 +7°C° 0 mm 2 mps 696 mmHg 97%
    05:00 +6°C° 0 mm 2 mps 697 mmHg 97%
    06:00 +6°C° 0 mm 2 mps 697 mmHg 97%
    07:00 +6°C° 0 mm 2 mps 697 mmHg 91%
    08:00 +7°C° 0 mm 2 mps 697 mmHg 86%
    09:00 +8°C° 0 mm 2 mps 698 mmHg 80%
    10:00 +9°C° 0 mm 2 mps 697 mmHg 74%
    11:00 +10°C° 0 mm 3 mps 697 mmHg 67%
    12:00 +10°C° 0 mm 3 mps 697 mmHg 60%
    13:00 +10°C° 0 mm 3 mps 697 mmHg 61%
    14:00 +10°C° 0 mm 3 mps 697 mmHg 62%
    15:00 +9°C° 0 mm 3 mps 697 mmHg 63%
    16:00 +8°C° 0 mm 2 mps 697 mmHg 70%
    17:00 +6°C° 0 mm 2 mps 697 mmHg 77%
    18:00 +5°C° 0 mm 2 mps 697 mmHg 84%
    19:00 +4°C° 0 mm 2 mps 697 mmHg 84%
    20:00 +5°C° 0 mm 1 mps 697 mmHg 84%
    21:00 +5°C° 0 mm 1 mps 697 mmHg 84%
    22:00 +5°C° 0 mm 1 mps 697 mmHg 84%
    23:00 +4°C° 0 mm 1 mps 697 mmHg 84%

    29 October, Sunday

    Time Temperature Precipitation Wind Pressure Humidity
    00:00 +4°C° 0 mm 1 mps 697 mmHg 83%
    01:00 +4°C° 0 mm 1 mps 697 mmHg 83%
    02:00 +4°C° 0 mm 1 mps 696 mmHg 83%
    03:00 +4°C° 0 mm 1 mps 696 mmHg 83%
    04:00 +4°C° 0 mm 1 mps 696 mmHg 83%
    05:00 +4°C° 0 mm 1 mps 696 mmHg 83%
    06:00 +4°C° 0 mm 1 mps 696 mmHg 83%
    07:00 +6°C° 0 mm 1 mps 696 mmHg 76%
    08:00 +8°C° 0 mm 1 mps 696 mmHg 69%
    09:00 +10°C° 0 mm 1 mps 696 mmHg 62%
    10:00 +11°C° 0 mm 1 mps 696 mmHg 61%
    11:00 +12°C° 0 mm 2 mps 696 mmHg 59%
    12:00 +13°C° 0 mm 2 mps 695 mmHg 57%
    13:00 +12°C° 0 mm 2 mps 695 mmHg 62%
    14:00 +12°C° 0 mm 2 mps 695 mmHg 66%
    15:00 +10°C° 0 mm 2 mps 694 mmHg 70%
    16:00 +9°C° 0 mm 1 mps 694 mmHg 78%
    17:00 +8°C° 0 mm 1 mps 694 mmHg 85%
    18:00 +6°C° 0 mm 1 mps 694 mmHg 93%
    19:00 +6°C° 0 mm 1 mps 694 mmHg 92%
    20:00 +5°C° 0 mm 1 mps 694 mmHg 92%
    21:00 +5°C° 0 mm 1 mps 694 mmHg 92%
    22:00 +5°C° 0 mm 1 mps 694 mmHg 91%
    23:00 +5°C° 0 mm 1 mps 693 mmHg 90%
    Show more